Location: *
(43.4667°N, 11.6833°E)
Time: 20:21:30
(UTC+00:00)

Cosmos 2219 Rocket - Pass Details

Date: 19 July 2019
Orbit: 829 x 845 km, 71.0° (Epoch: 23 August)

Event Time Altitude Azimuth Distance (km) Brightness Sun altitude
Exits shadow 22:58:02 - 253° (WSW) 2,903 4.9 -25.6°
Reaches altitude 10° 22:59:32 10° 262° (W) 2,466 4.6 -25.6°
Maximum altitude 23:03:46 21° 311° (NW) 1,803 4.4 -25.7°
Drops below altitude 10° 23:08:02 10° 360° (N) 2,470 5.7 -25.7°
Sets 23:11:06 0° 16° (NNE) 3,406 6.5 -25.7°
